Location: Le Sartre
(44.8050°N, 2.2123°E)
Time: 13:39:43
(UTC+00:00)

Cosmos 1536 - Pass Details

Date: 15 May 2026
Orbit: 482 x 500 km, 82.5° (Epoch: 10 June)

Event Time Altitude Azimuth Distance (km) Brightness Sun altitude
Rises 21:32:11 0° 5° (N) 2,570 7.1 -19.1°
Reaches altitude 10° 21:34:42 10° 22° (NNE) 1,687 5.7 -19.3°
Enters shadow 21:37:28 21° 71° (ENE) 1,167 4.3 -19.6°
